Temp
71 66 63 64 70 72 69 65 66 72 77 72 67 67 70 73 74 74 73 70 70 72 72 74 74 76 76 76 73 76 75 73 71 71 72 71 74 72 72 74 76 76 75 74
66 62 71 74 74 71 67 65 65 72 76 71 66 66 71 73 72 74 74 72 70 70 71 73 73 74 75 74 74 73 73 74 77 75 72 74 72 72 73 76 76 75 75 75
63 69 78 74 72 70 67 61 66 69 72 72 69 63 66 71 73 76 76 76 74 73 70 71 72 72 75 72 73 72 69 72 74 77 77 74 73 72 72 74 74 76 75 74
66 75 76 70 70 69 59 76 74 72 65 57 67 52 59 61 66 70 73 73 73 74 75 74 74 74 74 74 72 71 71 70 73 75 74 74 72 70 71 72 76 76 75 74
67 69 69 68 73 74 70 75 72 72 62 58 61 55 56 58 62 65 70 73 75 76 75 74 74 77 77 77 72 73 70 72 73 74 73 72 72 71 72 70 71 73 73 75
69 76 74 73 79 77 79 69 65 58 56 50 55 55 52 57 62 64 70 72 76 76 75 75 76 77 76 76 74 74 72 71 72 73 73 71 70 69 67 67 68 69 71 71
67 71 75 78 67 71 68 58 50 51 48 49 48 55 59 65 67 69 70 72 75 75 73 73 72 72 72 73 73 73 71 70 72 72 70 70 69 67 67 69 69 69 70 71
55 59 68 76 72 69 60 60 52 46 45 49 52 52 61 70 70 71 73 73 75 73 72 73 72 73 73 75 73 74 72 71 70 70 68 68 67 67 67 68 69 70 70 71
54 59 73 75 76 76 62 58 62 52 47 48 50 56 64 68 71 72 72 74 74 73 73 73 74 74 73 74 74 74 72 70 70 70 68 67 67 66 66 68 69 71 70 71
61 57 65 75 76 71 70 70 59 53 45 43 48 50 54 64 68 70 72 72 72 73 73 74 74 74 74 74 74 74 73 71 71 69 68 68 67 67 67 67 68 69 71 70
62 59 64 69 63 64 66 59 55 54 50 44 43 50 64 68 70 69 71 72 72 72 73 74 73 74 74 74 74 74 73 72 70 69 68 67 67 67 67 67 67 68 69 70
65 57 55 63 69 73 67 61 57 53 49 47 49 53 69 70 70 71 73 73 73 74 73 73 73 73 73 72 72 72 72 72 72 69 69 69 68 67 67 67 67 67 67 69
67 55 52 58 64 68 65 62 56 54 51 49 50 55 69 67 68 72 71 70 71 73 72 70 71 71 72 72 71 72 72 72 71 70 70 69 68 68 67 68 68 68 68 68
71 53 57 54 59 64 62 65 64 58 53 51 54 60 65 67 67 67 68 70 71 73 72 70 69 70 71 70 71 71 71 72 71 71 70 69 69 69 69 69 69 70 70 70
68 59 55 57 62 67 67 68 67 61 60 56 59 60 67 69 68 67 70 71 72 69 65 62 69 70 70 70 70 71 71 71 70 69 69 69 69 70 70 68 68 68 69 69
61 56 54 58 65 67 64 67 68 68 65 62 62 61 68 65 68 69 70 71 69 67 65 61 61 66 69 72 70 70 69 69 69 68 68 69 68 68 68 68 67 67 67 67
59 58 54 50 57 60 58 63 65 65 67 66 61 68 69 66 70 70 70 72 69 65 65 63 63 65 70 72 72 69 69 69 68 69 69 68 68 67 67 67 66 66 65 66
56 51 50 49 51 47 60 64 67 65 71 70 70 69 70 67 63 66 70 68 67 66 65 63 65 69 72 72 72 71 70 69 68 67 68 70 68 68 67 67 66 65 65 65
57 53 49 50 46 54 61 64 64 60 65 72 69 69 67 67 67 63 67 69 65 65 64 65 70 70 70 71 70 70 68 68 69 70 69 68 68 68 68 66 65 65 64 63
57 55 54 47 49 48 59 68 70 69 56 71 71 70 66 68 61 61 64 65 65 65 65 65 69 70 69 70 70 68 70 68 69 70 71 70 67 67 66 65 64 64 63 63
50 49 49 48 48 56 65 70 71 56 58 70 70 69 69 66 63 64 64 65 66 66 67 69 70 67 67 68 69 68 67 67 71 71 67 66 66 65 65 63 63 62 62 61
51 49 47 46 46 49 68 69 62 62 64 69 70 66 63 62 65 65 65 65 67 66 68 68 66 65 66 68 69 67 68 69 69 66 65 65 64 65 66 62 61 62 60 59
51 54 52 54 53 64 67 68 70 65 66 70 65 66 67 65 65 65 63 64 64 66 65 66 65 64 65 65 67 63 62 61 61 61 60 61 61 62 62 61 60 59 59 58
56 58 53 56 62 64 67 70 72 73 73 71 70 69 69 65 66 63 62 62 62 63 63 63 63 62 61 62 62 57 58 59 58 58 58 58 58 58 58 59 59 57 57 56
57 58 54 55 64 67 70 71 73 73 73 72 71 71 70 68 64 62 61 62 62 62 62 61 60 57 56 56 55 56 56 56 55 55 55 55 56 56 56 57 56 57 58 56
58 56 56 56 65 67 66 70 74 72 72 72 70 68 69 67 64 63 60 60 60 58 58 56 55 54 54 54 53 53 53 53 51 51 53 52 53 54 55 55 56 56 53 52
MSLP
1006.81 1007.47 1007.59 1007.80 1007.98 1007.91 1007.84 1007.61 1007.48 1006.57 1006.17 1006.19 1007.33 1007.81 1007.93 1007.81 1008.21 1008.75 1009.23 1009.98 1010.43 1010.49 1010.99 1010.56 1010.49 1010.91 1011.11 1011.33 1011.65 1012.03 1012.18 1013.12 1013.16 1013.48 1013.25 1013.46 1013.43 1013.44 1013.51 1013.23 1013.16 1013.36 1013.58 1013.78
1007.54 1007.45 1006.84 1007.25 1007.37 1007.53 1007.57 1007.62 1007.32 1006.56 1006.52 1006.68 1008.06 1008.41 1008.68 1008.97 1009.24 1008.70 1009.00 1009.79 1010.67 1010.41 1010.69 1010.55 1010.31 1010.70 1011.08 1011.62 1011.69 1011.81 1011.77 1012.11 1012.35 1012.58 1012.70 1012.91 1012.83 1012.93 1012.91 1012.82 1012.80 1012.95 1013.09 1013.18
1007.37 1006.86 1006.90 1006.97 1006.81 1007.10 1006.79 1007.22 1007.30 1006.99 1007.08 1007.46 1008.20 1009.25 1009.47 1009.59 1009.42 1009.48 1008.95 1009.07 1009.55 1009.97 1010.06 1010.16 1009.99 1010.01 1010.55 1010.98 1011.14 1011.83 1011.93 1012.01 1012.21 1012.53 1012.61 1012.72 1012.63 1012.84 1012.86 1012.72 1012.48 1012.30 1012.45 1012.65
1007.07 1006.23 1006.44 1006.58 1006.68 1006.87 1006.99 1005.80 1006.51 1006.83 1007.68 1008.53 1009.06 1010.46 1010.05 1010.18 1009.73 1009.53 1009.03 1009.12 1009.33 1009.38 1009.69 1009.59 1009.61 1009.71 1009.87 1010.19 1010.80 1011.59 1011.77 1012.32 1012.51 1012.59 1012.54 1013.01 1012.86 1013.51 1012.77 1012.66 1012.15 1011.86 1011.67 1011.85
1006.53 1006.06 1006.03 1006.15 1005.66 1006.31 1006.08 1005.93 1006.42 1007.16 1008.50 1009.41 1010.06 1010.75 1010.45 1010.17 1009.71 1009.36 1008.93 1008.69 1008.74 1008.88 1009.09 1009.30 1009.45 1009.36 1009.36 1010.08 1010.64 1010.87 1011.51 1011.82 1012.17 1012.34 1012.45 1012.80 1012.88 1013.33 1012.74 1012.64 1012.49 1012.05 1011.64 1011.21
1006.45 1005.88 1005.68 1005.05 1004.77 1005.22 1005.14 1006.34 1006.91 1008.54 1009.58 1010.98 1010.80 1011.12 1010.94 1010.08 1009.17 1009.13 1008.89 1008.38 1008.39 1008.68 1008.95 1009.16 1009.16 1009.49 1009.54 1009.94 1010.19 1010.54 1011.25 1011.91 1012.01 1012.55 1012.58 1012.77 1013.02 1012.94 1012.82 1012.82 1012.57 1012.16 1011.68 1011.38
1006.56 1005.75 1004.79 1004.49 1004.77 1004.67 1005.51 1007.01 1008.58 1010.29 1011.45 1011.80 1011.42 1011.31 1009.63 1008.88 1008.77 1008.96 1008.87 1008.72 1008.07 1008.76 1009.23 1009.08 1009.53 1009.47 1009.57 1010.04 1010.35 1010.84 1011.39 1011.93 1012.37 1012.65 1013.00 1012.86 1013.01 1013.35 1013.25 1013.06 1012.62 1012.03 1011.48 1011.07
1007.03 1005.94 1004.80 1004.16 1004.31 1004.71 1005.71 1006.88 1008.92 1010.87 1012.43 1012.31 1011.73 1011.10 1008.73 1008.31 1008.25 1008.24 1008.24 1008.42 1008.05 1008.79 1009.19 1009.34 1009.48 1009.41 1009.72 1010.06 1010.59 1011.02 1011.61 1012.18 1012.48 1012.81 1013.00 1013.09 1013.19 1013.32 1013.13 1012.83 1012.46 1011.85 1011.14 1010.51
1007.02 1006.22 1004.66 1003.98 1003.90 1004.27 1005.73 1006.89 1007.91 1010.32 1012.41 1012.87 1012.31 1010.73 1008.81 1007.54 1007.70 1007.88 1007.77 1008.06 1008.24 1008.84 1009.33 1009.21 1009.45 1009.66 1009.91 1010.20 1010.64 1011.16 1011.76 1012.29 1012.55 1012.69 1012.90 1013.10 1013.20 1013.32 1013.19 1012.78 1012.50 1012.13 1011.71 1011.32
1006.71 1006.37 1004.94 1003.92 1003.52 1004.12 1004.62 1006.13 1008.23 1010.25 1012.43 1013.30 1012.62 1011.55 1009.44 1007.74 1007.62 1007.49 1007.30 1007.74 1008.22 1008.67 1009.38 1009.33 1009.54 1009.73 1010.20 1010.58 1010.97 1011.43 1011.83 1012.19 1012.41 1012.66 1012.82 1012.95 1013.01 1013.15 1013.06 1012.89 1012.77 1012.35 1012.02 1011.49
1006.59 1006.87 1005.93 1005.08 1004.82 1004.43 1005.15 1006.38 1008.55 1010.35 1011.82 1012.83 1012.70 1010.66 1007.37 1006.94 1007.13 1007.16 1007.04 1007.46 1008.21 1008.68 1009.38 1009.36 1009.90 1010.28 1010.67 1010.95 1011.28 1011.85 1012.23 1012.37 1012.57 1012.91 1013.11 1013.26 1013.16 1013.17 1013.05 1012.96 1012.80 1012.50 1012.21 1011.86
1005.83 1006.88 1007.15 1006.20 1005.12 1004.80 1004.71 1006.07 1007.58 1009.97 1011.91 1012.13 1011.60 1009.24 1006.76 1006.35 1006.50 1006.86 1006.95 1007.50 1008.08 1008.72 1009.73 1009.52 1010.00 1010.32 1010.82 1011.22 1011.40 1011.53 1011.70 1012.33 1012.57 1012.90 1012.94 1013.05 1012.94 1012.95 1012.91 1012.84 1012.70 1012.67 1012.28 1011.89
1005.34 1006.64 1007.55 1006.73 1006.19 1005.34 1005.63 1006.25 1007.26 1008.52 1010.06 1010.95 1010.93 1008.52 1006.65 1006.22 1006.55 1006.62 1007.02 1007.96 1008.45 1008.94 1009.77 1009.93 1010.08 1010.15 1010.57 1011.16 1011.55 1011.65 1011.71 1012.02 1012.48 1012.58 1012.73 1012.99 1013.03 1012.90 1012.69 1012.59 1012.50 1012.42 1012.24 1011.91
1004.26 1006.58 1006.94 1006.67 1005.98 1005.68 1006.09 1006.47 1006.70 1007.54 1009.18 1010.27 1009.64 1008.10 1007.14 1006.85 1006.67 1007.14 1007.55 1007.89 1008.39 1008.93 1009.74 1010.14 1010.60 1010.67 1010.73 1010.71 1010.72 1011.27 1011.61 1012.03 1012.20 1012.44 1012.62 1012.80 1012.86 1012.78 1012.58 1012.35 1012.26 1012.21 1012.09 1012.00
1004.60 1006.30 1006.82 1006.67 1005.92 1005.55 1005.90 1006.17 1006.42 1006.99 1007.40 1008.37 1007.88 1007.71 1006.36 1006.31 1006.16 1006.71 1007.28 1007.89 1008.87 1010.62 1012.90 1013.84 1013.68 1010.59 1010.98 1011.20 1010.95 1010.84 1011.61 1011.99 1012.23 1012.35 1012.63 1012.76 1012.70 1012.69 1012.71 1012.49 1012.27 1012.11 1012.05 1011.97
1005.42 1007.01 1007.12 1007.75 1006.98 1006.27 1006.58 1006.32 1006.09 1006.43 1006.38 1006.53 1006.94 1006.24 1005.67 1005.93 1006.45 1007.16 1007.57 1008.44 1009.78 1011.04 1012.37 1012.82 1010.09 1012.15 1011.49 1011.21 1011.14 1011.08 1011.50 1011.86 1012.17 1012.37 1012.49 1012.61 1012.73 1012.85 1012.92 1012.84 1012.65 1012.26 1011.93 1011.86
1006.35 1007.34 1008.50 1008.88 1008.19 1007.33 1007.03 1006.24 1005.81 1005.76 1005.75 1005.71 1005.90 1005.38 1005.21 1006.21 1006.55 1007.18 1008.08 1008.63 1009.50 1010.99 1012.12 1012.18 1013.87 1012.38 1012.13 1011.40 1010.85 1011.25 1011.25 1011.67 1012.00 1012.19 1012.43 1012.58 1012.65 1012.95 1013.02 1012.98 1012.93 1012.61 1012.40 1012.03
1007.27 1008.42 1009.22 1009.93 1009.03 1008.56 1007.13 1006.43 1006.25 1006.28 1005.74 1005.35 1005.34 1005.34 1005.38 1005.90 1007.32 1007.43 1007.56 1008.52 1009.48 1010.87 1011.60 1011.31 1010.70 1010.81 1010.98 1011.35 1011.64 1011.20 1011.30 1011.74 1012.15 1012.52 1012.61 1012.41 1012.43 1012.64 1012.70 1012.69 1012.78 1012.58 1012.21 1012.07
1007.81 1008.79 1010.43 1010.81 1010.18 1009.08 1007.46 1006.63 1006.45 1006.37 1005.74 1005.30 1005.46 1005.65 1006.40 1006.73 1007.48 1008.87 1008.44 1008.80 1009.35 1009.97 1011.13 1010.87 1010.44 1010.88 1010.87 1011.19 1011.38 1012.00 1011.82 1012.03 1012.10 1012.19 1012.31 1012.26 1012.21 1012.31 1012.45 1012.46 1012.49 1012.33 1012.04 1011.82
1008.81 1009.33 1010.18 1011.31 1010.58 1009.33 1007.41 1006.56 1006.22 1006.28 1006.58 1005.89 1005.83 1006.09 1007.05 1007.19 1008.21 1009.06 1010.18 1010.39 1010.72 1010.85 1011.00 1010.85 1011.28 1011.09 1011.22 1011.16 1011.22 1011.81 1012.31 1012.15 1012.06 1012.21 1012.37 1012.33 1012.34 1012.39 1012.37 1012.30 1012.29 1012.04 1011.78 1011.64
1010.42 1011.05 1011.56 1011.56 1010.66 1008.90 1007.27 1006.70 1006.08 1006.36 1006.81 1006.09 1006.08 1005.71 1007.02 1007.81 1008.38 1009.10 1010.39 1010.88 1011.18 1011.61 1011.54 1011.33 1011.52 1011.74 1011.56 1011.32 1011.67 1012.43 1012.74 1012.84 1012.78 1012.55 1012.46 1012.48 1012.38 1012.49 1012.31 1012.32 1012.15 1011.94 1011.70 1011.44
1010.94 1011.38 1011.72 1011.70 1010.63 1008.47 1006.65 1006.70 1006.30 1006.13 1005.92 1005.96 1006.67 1006.15 1007.63 1008.51 1008.95 1009.56 1010.25 1010.85 1011.37 1011.61 1011.72 1011.73 1011.86 1012.31 1012.35 1012.30 1012.24 1012.82 1013.19 1013.16 1012.90 1012.69 1012.62 1012.72 1012.62 1012.54 1012.26 1012.28 1011.97 1011.72 1011.53 1011.35
1011.07 1010.19 1010.15 1009.77 1008.48 1007.13 1006.18 1005.39 1005.66 1005.97 1005.78 1006.10 1006.45 1006.70 1007.38 1008.57 1009.52 1010.19 1010.97 1011.51 1011.97 1012.10 1012.23 1012.18 1012.27 1012.94 1013.06 1013.09 1013.40 1014.03 1014.43 1013.89 1013.61 1013.26 1013.26 1013.16 1012.88 1012.59 1012.34 1012.24 1011.97 1011.85 1011.57 1011.38
1010.30 1009.77 1009.74 1009.13 1007.35 1006.80 1006.00 1005.42 1004.56 1005.00 1005.24 1005.82 1006.88 1007.30 1007.73 1008.57 1009.64 1010.55 1011.31 1012.03 1012.29 1012.43 1012.59 1012.71 1013.01 1013.41 1013.97 1014.44 1014.43 1014.71 1014.64 1014.36 1014.22 1014.09 1013.88 1013.59 1013.29 1012.94 1012.58 1012.23 1011.96 1011.74 1011.59 1011.40
1009.59 1009.56 1009.25 1008.54 1007.00 1006.21 1005.31 1005.15 1005.19 1005.22 1005.44 1006.25 1007.24 1007.37 1007.81 1008.56 1009.88 1010.64 1011.58 1012.22 1012.63 1013.06 1013.34 1013.65 1014.19 1014.84 1015.33 1015.42 1015.47 1015.34 1015.10 1014.86 1014.83 1014.69 1014.33 1013.91 1013.52 1013.14 1012.69 1012.30 1012.01 1011.64 1011.26 1011.03
1008.49 1008.09 1007.85 1006.76 1006.03 1005.68 1005.43 1004.74 1005.00 1005.56 1006.14 1006.48 1007.13 1008.03 1008.66 1009.30 1010.08 1010.95 1011.90 1012.57 1013.16 1013.71 1014.26 1014.64 1015.20 1015.48 1015.71 1015.65 1015.69 1015.52 1015.31 1015.07 1014.93 1014.87 1014.59 1014.15 1013.68 1013.23 1012.80 1012.28 1011.63 1011.31 1010.88 1010.47
Wind_Speed
4 4 7 5 6 4 4 3 5 8 3 7 5 3 4 4 10 11 8 6 8 8 8 9 8 6 6 9 9 16 15 11 5 4 3 3 5 4 4 5 8 7 7 8
5 6 5 3 2 4 3 5 8 4 4 4 3 3 6 6 2 8 8 7 8 5 6 8 9 6 7 8 11 6 7 7 9 7 4 3 3 3 2 4 5 6 7 8
7 5 4 2 6 6 8 5 4 7 3 6 5 4 4 4 4 4 4 3 4 10 9 9 12 11 7 8 8 6 6 7 4 6 3 1 2 2 2 4 4 7 7 8
5 7 5 4 7 5 7 11 9 8 5 4 4 4 3 3 3 2 4 1 6 10 7 10 12 9 10 9 4 5 7 4 2 2 4 5 4 1 4 3 3 5 7 9
7 1 3 4 12 6 14 5 3 5 5 5 5 5 9 1 4 4 5 2 3 7 8 10 13 15 12 6 6 4 5 2 3 4 4 3 9 4 3 3 7 8 5 7
6 3 5 8 9 8 5 2 9 6 4 4 5 4 7 5 7 3 5 3 7 7 3 5 7 9 9 5 4 2 4 3 2 5 1 2 1 4 5 5 6 6 5 4
7 7 6 5 5 2 7 7 4 5 7 5 2 1 9 7 6 5 5 4 9 8 6 7 5 4 6 7 5 4 3 2 4 3 4 2 3 3 2 5 5 9 7 7
3 7 4 4 7 9 2 8 8 5 4 5 2 5 8 3 2 6 9 8 9 7 5 7 6 6 6 8 7 6 6 5 6 6 5 3 3 1 2 3 5 6 5 5
5 6 4 4 4 8 4 2 5 9 3 3 4 8 10 7 6 7 4 8 11 8 7 8 7 7 7 7 7 9 8 6 5 5 4 4 3 2 3 5 4 3 4 4
2 3 2 8 5 3 7 8 5 4 5 3 5 6 8 4 6 5 8 8 8 8 6 7 7 9 6 6 6 6 6 6 6 5 3 3 2 0 1 3 5 4 2 0
6 5 8 6 1 6 3 2 7 7 4 7 1 8 9 12 7 7 5 4 7 8 8 8 6 6 6 6 6 6 5 5 5 4 3 1 2 1 3 3 4 4 4 4
7 6 4 12 5 6 5 4 6 7 5 1 4 10 2 10 8 9 9 5 6 7 5 7 8 8 7 6 5 5 6 5 4 3 2 3 4 3 3 5 5 5 6 6
9 2 2 12 8 4 4 1 6 6 4 5 7 9 6 1 6 8 6 4 6 9 7 6 8 9 8 7 6 6 6 6 5 5 2 2 3 3 5 5 6 5 4 5
10 4 9 9 9 6 3 1 3 6 5 4 7 7 5 7 7 6 5 2 9 11 10 8 7 7 7 7 7 6 6 5 5 4 4 2 3 4 3 3 4 5 5 5
8 7 4 4 1 6 6 5 4 4 5 7 5 9 7 13 11 6 7 8 9 12 23 28 16 10 6 7 6 7 6 6 5 5 3 2 0 2 3 3 3 3 5 5
1 2 3 6 6 7 6 3 6 4 4 5 7 6 5 3 9 7 7 11 13 13 16 24 37 23 3 7 6 6 7 6 5 5 5 4 3 1 2 4 5 5 5 5
4 6 4 3 3 2 4 4 3 1 3 3 0 7 4 3 7 7 8 13 14 15 19 22 15 26 11 6 7 8 7 6 5 5 4 2 1 2 2 2 4 5 6 4
6 5 3 3 3 1 6 4 1 4 6 6 7 3 4 7 6 7 10 14 14 15 12 12 13 14 7 3 6 3 5 4 2 2 2 2 0 2 2 3 3 4 2 4
5 6 5 5 3 4 3 2 2 1 8 4 1 4 3 10 6 7 5 7 13 11 14 19 10 4 2 3 0 5 2 3 2 3 3 2 4 3 1 1 4 5 3 4
7 8 6 3 5 5 8 4 4 5 5 3 7 6 8 5 4 4 5 5 6 2 5 4 3 2 5 5 6 5 3 4 4 4 4 2 1 2 3 4 5 3 3 5
5 4 5 3 0 6 5 5 3 7 9 6 6 5 8 3 2 11 11 5 3 5 5 4 4 2 2 1 6 5 3 2 3 2 3 4 3 5 5 5 3 4 5 5
5 6 4 4 2 8 7 2 3 7 2 2 5 5 7 5 12 14 7 8 6 6 5 6 8 6 4 5 6 5 4 5 4 5 5 6 6 5 4 5 4 5 4 4
3 7 5 8 8 4 4 6 4 3 4 3 3 6 11 12 8 9 6 7 4 6 6 3 8 8 8 10 9 8 6 6 6 6 6 6 6 6 6 6 6 4 5 3
4 2 3 1 4 8 8 7 6 8 4 8 6 10 8 12 10 8 7 6 4 5 5 4 7 9 10 8 8 6 6 7 7 7 7 6 6 7 6 4 4 3 4 4
4 6 4 6 7 6 6 5 3 2 9 14 10 8 12 13 7 7 7 6 6 6 6 6 8 7 6 5 6 6 6 6 6 5 5 6 5 5 6 5 4 4 5 5
6 8 6 6 7 5 7 7 8 7 8 14 12 8 5 5 10 8 7 6 6 7 5 7 6 6 5 5 5 5 6 6 6 6 6 6 5 5 5 7 8 8 10 13
Wind_Direction
354 53 235 184 192 208 289 272 264 277 256 78 38 89 37 65 121 155 186 161 184 201 187 230 266 154 187 210 184 210 191 200 177 208 191 210 221 201 212 209 218 211 210 203
14 240 245 257 233 259 255 282 303 307 8 85 113 48 24 37 327 183 192 197 185 201 188 221 233 213 215 185 207 200 178 178 199 198 215 205 186 229 249 230 230 226 207 203
189 207 52 255 302 299 283 195 170 210 122 51 103 10 51 1 354 276 300 265 185 187 199 215 222 221 197 208 211 185 196 231 205 202 176 186 103 18 297 243 240 226 206 203
236 272 221 234 260 155 290 291 234 144 97 176 70 247 324 315 299 283 294 205 195 219 203 216 225 236 229 235 206 200 148 198 350 299 227 201 7 210 244 266 267 257 205 204
236 121 69 268 248 155 237 224 244 118 108 90 350 78 268 317 281 303 312 348 177 164 179 206 212 224 233 219 235 120 111 132 83 235 253 183 200 265 279 300 288 293 266 224
225 292 224 227 265 210 258 196 47 61 87 56 266 131 270 213 202 219 259 303 143 126 138 191 218 228 231 216 197 115 115 187 246 247 256 242 273 330 352 332 310 294 269 229
339 271 263 196 253 17 74 58 6 2 13 215 336 97 242 208 215 219 255 252 139 145 159 109 134 144 174 178 147 140 174 236 208 134 132 102 66 54 345 315 301 297 278 255
146 327 172 186 181 201 121 139 148 194 189 239 277 247 254 159 268 256 252 234 130 139 156 136 115 100 104 127 144 162 146 130 123 138 133 131 107 71 317 304 316 322 311 279
152 269 296 234 203 138 190 173 182 106 42 70 286 293 285 236 199 181 139 173 154 152 185 146 125 113 110 113 125 126 127 139 155 148 155 136 83 7 335 349 348 352 354 6
202 287 261 301 31 41 157 160 67 12 139 233 301 283 242 280 206 191 127 197 166 156 179 147 141 130 117 117 115 114 129 156 177 149 131 156 170 140 17 360 354 343 26 320
142 116 282 20 302 181 89 86 57 108 117 154 224 266 220 222 198 182 158 205 184 160 186 154 136 114 123 131 137 148 145 161 176 168 144 175 266 267 340 322 324 322 308 261
200 145 216 239 278 321 105 131 130 120 212 85 124 274 274 226 171 188 196 188 167 149 214 137 131 135 134 140 135 136 151 190 211 121 152 200 241 285 302 308 301 312 293 281
175 228 346 333 356 3 59 23 100 109 72 188 131 262 346 48 151 220 198 150 152 142 159 128 136 143 145 146 137 119 111 110 144 169 220 256 255 270 302 321 320 313 311 305
112 127 161 187 203 137 148 211 128 115 105 167 230 269 292 269 233 204 196 185 166 157 160 156 133 149 148 150 135 125 119 136 134 126 115 160 287 296 304 322 349 355 356 4
129 172 160 6 23 107 157 151 140 118 152 151 268 224 248 222 219 179 176 146 141 75 67 35 339 150 151 151 149 132 134 149 151 133 134 160 249 331 342 10 13 21 15 358
59 137 101 38 11 112 110 152 145 178 159 181 242 247 220 140 127 164 151 118 115 115 64 47 3 324 241 163 156 141 158 164 163 158 187 186 171 194 322 347 348 348 350 355
71 121 82 159 341 10 19 213 193 167 238 189 233 244 148 118 141 172 138 137 138 130 121 124 164 269 268 228 172 179 175 169 181 185 214 213 221 279 315 338 345 346 337 331
98 79 74 123 47 151 246 322 302 294 274 243 280 325 198 142 96 75 143 143 146 140 155 188 197 239 209 275 309 173 173 179 108 55 295 267 175 75 25 39 2 326 299 307
42 107 79 124 165 273 8 333 1 26 298 231 300 142 136 126 90 40 124 133 140 159 167 197 207 229 350 302 45 273 113 122 181 226 156 138 131 140 113 333 310 292 287 300
53 64 103 121 128 198 230 225 161 155 295 240 271 209 166 192 115 197 87 71 109 71 287 265 258 64 323 265 149 143 211 165 165 146 189 193 209 232 247 259 285 273 288 284
33 14 98 69 86 284 256 282 233 94 233 319 298 136 152 177 225 107 119 105 166 193 203 227 238 240 297 22 123 118 89 280 257 205 236 254 266 270 272 272 271 283 304 315
158 135 175 108 142 253 189 228 169 213 278 212 289 124 93 89 100 109 126 111 110 105 100 99 96 86 73 75 88 81 36 340 313 321 336 326 320 300 286 260 279 285 290 303
254 176 185 180 208 296 271 158 217 210 213 105 120 81 119 124 112 125 119 118 96 117 112 89 99 84 51 48 51 60 1 8 12 26 10 360 339 333 323 312 305 304 296 276
255 171 203 64 235 227 236 251 207 198 192 123 106 132 135 133 147 125 122 126 125 91 80 65 79 71 67 46 50 51 15 7 16 5 352 341 337 329 326 321 306 291 281 282
200 140 179 263 283 314 316 256 319 59 103 121 142 158 156 142 118 120 129 124 115 100 81 79 92 89 79 63 55 34 23 18 10 346 330 326 320 318 322 316 297 296 282 246
184 184 169 219 219 164 246 229 183 140 156 146 150 149 139 146 138 119 100 94 98 90 90 84 85 91 75 59 41 27 20 17 3 343 332 318 317 319 322 318 316 299 283 291